This is the latest recevied weather packets stored in our database for station/object W1ERB-13. If no packets are shown the sender has not sent any weather packets the latest 10 day(s).
| Time | Temp. | Humidity | Pressure | Rain* | Wind** | Luminosity | Snow |
|---|---|---|---|---|---|---|---|
| 1777925588 | 20.56° C | 39% | 1008.3 hPa | 0 mm | - | 505 W/m² | - |
| 1777925286 | 20.56° C | 38% | 1008.5 hPa | 0 mm | - | 494 W/m² | - |
| 1777924982 | 21.11° C | 39% | 1008.3 hPa | 0 mm | - | 527 W/m² | - |
| 1777924678 | 21.11° C | 39% | 1008.3 hPa | 0 mm | - | 525 W/m² | - |
| 1777924374 | 21.11° C | 38% | 1008.5 hPa | 0 mm | - | 540 W/m² | - |
| 1777924071 | 20.56° C | 38% | 1008.3 hPa | 0 mm | - | 537 W/m² | - |
| 1777923767 | 20.56° C | 38% | 1008.4 hPa | 0 mm | - | 525 W/m² | - |
| 1777923464 | 21.11° C | 37% | 1008.4 hPa | 0 mm | - | 575 W/m² | - |
| 1777923161 | 20.56° C | 37% | 1008.3 hPa | 0 mm | - | 581 W/m² | - |
| 1777922859 | 21.67° C | 37% | 1008.4 hPa | 0 mm | - | 587 W/m² | - |
| 1777922557 | 21.11° C | 35% | 1008.4 hPa | 0 mm | - | 627 W/m² | - |
| 1777922256 | 21.11° C | 36% | 1008.4 hPa | 0 mm | - | 652 W/m² | - |
| 1777921952 | 20.56° C | 37% | 1008.7 hPa | 0 mm | - | 678 W/m² | - |
| 1777921647 | 21.67° C | 35% | 1008.8 hPa | 0 mm | - | 657 W/m² | - |
| 1777921344 | 21.67° C | 35% | 1008.7 hPa | 0 mm | - | 644 W/m² | - |
| 1777921041 | 20.56° C | 36% | 1008.7 hPa | 0 mm | - | 673 W/m² | - |
| 1777920738 | 21.11° C | 33% | 1008.7 hPa | 0 mm | - | 675 W/m² | - |
| 1777920434 | 21.67° C | 32% | 1008.8 hPa | 0 mm | - | 649 W/m² | - |
| 1777920130 | 21.67° C | 30% | 1008.8 hPa | 0 mm | - | 622 W/m² | - |
| 1777919826 | 21.11° C | 36% | 1008.7 hPa | 0 mm | - | 661 W/m² | - |
| 1777919523 | 21.11° C | 31% | 1008.8 hPa | 0 mm | - | 668 W/m² | - |
| 1777919221 | 21.11° C | 32% | 1008.6 hPa | 0 mm | - | 675 W/m² | - |
| 1777918918 | 21.67° C | 31% | 1008.8 hPa | 0 mm | - | 685 W/m² | - |
| 1777918616 | 21.11° C | 31% | 1009 hPa | 0 mm | - | 695 W/m² | - |
| 1777918313 | 20.56° C | 33% | 1009.2 hPa | 0 mm | - | 705 W/m² | - |
* Rain latest hour (hover to see other rain measurements)
** Current wind speed in m/s (hover to see current wind gust speed)